Location: Passo di Treia
(43.2833°N, 13.3333°E)
Time: 14:11:02
(UTC+00:00)

Cosmos 1140 Rocket - Pass Details

Date: 09 December 2019
Orbit: 744 x 768 km, 74.1° (Epoch: 23 January)

Event Time Altitude Azimuth Distance (km) Brightness Sun altitude
Rises 18:23:04 0° 211° (SSW) 3,171 7.1 -30.4°
Reaches altitude 10° 18:25:28 10° 216° (SW) 2,252 6.3 -30.9°
Enters shadow 18:29:31 47° 256° (WSW) 978 4.3 -31.6°
